GW3620 Weather Reports


Display with metric or nautical units.
time (UTC)temp
F
wind
direction
speed
MPH
gust
MPH
rain 1hr
in
rain 24hr
in
rain mn
in
humidity
%
barometer
mb
20260906001032 96 272 2.0 9.0 0.00 0.00 0.00 31 1013.1
20260906000032 96 285 3.0 10.0 0.00 0.00 0.00 31 1013.0
20260905235032 96 283 6.0 16.0 0.00 0.00 0.00 31 1013.0
20260905234030 96 275 3.0 10.0 0.00 0.00 0.00 31 1013.0
20260905233049 96 275 5.0 10.0 0.00 0.00 0.00 31 1013.2
20260905232032 96 270 4.0 12.0 0.00 0.00 0.00 30 1013.2
20260905231032 97 84 5.0 10.0 0.00 0.00 0.00 30 1013.2
20260905230032 97 88 4.0 10.0 0.00 0.00 0.00 30 1013.3
20260905225032 96 273 4.0 15.0 0.00 0.00 0.00 30 1013.3
20260905224032 96 280 2.0 7.0 0.00 0.00 0.00 30 1013.2
20260905223030 97 277 3.0 9.0 0.00 0.00 0.00 30 1013.3
20260905222032 97 273 3.0 16.0 0.00 0.00 0.00 31 1013.3
20260905221032 96 82 4.0 13.0 0.00 0.00 0.00 30 1013.4
20260905220032 96 275 2.0 12.0 0.00 0.00 0.00 31 1013.6
20260905215032 96 280 6.0 10.0 0.00 0.00 0.00 31 1013.6
20260905214032 96 70 6.0 10.0 0.00 0.00 0.00 31 1013.7
20260905213030 96 69 6.0 15.0 0.00 0.00 0.00 31 1013.8
20260905212030 96 80 5.0 10.0 0.00 0.00 0.00 31 1013.8
20260905211032 95 87 7.0 13.0 0.00 0.00 0.00 32 1014.2
20260905210032 95 271 7.0 13.0 0.00 0.00 0.00 32 1014.3
20260905205032 95 275 5.0 12.0 0.00 0.00 0.00 32 1014.3
20260905204032 95 275 3.0 12.0 0.00 0.00 0.00 33 1014.5
20260905203032 95 72 5.0 10.0 0.00 0.00 0.00 33 1014.9
20260905202047 94 67 4.0 10.0 0.00 0.00 0.00 33 1014.9
20260905201030 94 83 6.0 13.0 0.00 0.00 0.00 33 1014.8
20260905200032 94 86 3.0 9.0 0.00 0.00 0.00 34 1015.2
20260905195049 94 280 3.0 7.0 0.00 0.00 0.00 34 1015.2
20260905194032 93 73 5.0 15.0 0.00 0.00 0.00 35 1015.3
20260905193032 93 84 4.0 10.0 0.00 0.00 0.00 35 1015.6
20260905192032 93 86 3.0 9.0 0.00 0.00 0.00 36 1015.6
20260905191030 92 85 4.0 12.0 0.00 0.00 0.00 36 1016.0
20260905190049 92 76 3.0 13.0 0.00 0.00 0.00 37 1016.2
20260905185032 92 275 4.0 9.0 0.00 0.00 0.00 37 1016.2
20260905184049 92 277 4.0 12.0 0.00 0.00 0.00 38 1016.3
20260905183032 92 274 2.0 7.0 0.00 0.00 0.00 38 1016.6
20260905182032 91 274 1.0 10.0 0.00 0.00 0.00 39 1016.6
20260905181032 91 74 4.0 10.0 0.00 0.00 0.00 40 1016.4
20260905180030 90 67 3.0 12.0 0.00 0.00 0.00 40 1016.7
20260905175049 90 279 2.0 7.0 0.00 0.00 0.00 40 1016.7
20260905174032 90 89 1.0 6.0 0.00 0.00 0.00 41 1016.8
20260905173032 89 281 1.0 6.0 0.00 0.00 0.00 43 1016.6
20260905172032 89 48 1.0 6.0 0.00 0.00 0.00 45 1016.6
20260905171049 88 59 1.0 4.0 0.00 0.00 0.00 46 1016.8
20260905170049 88 27 1.0 4.0 0.00 0.00 0.00 47 1017.0
20260905165030 87 12 1.0 6.0 0.00 0.00 0.00 48 1017.0
20260905164030 87 50 1.0 3.0 0.00 0.00 0.00 49 1016.9
20260905163032 86 61 0.0 3.0 0.00 0.00 0.00 50 1016.8
20260905162032 85 44 0.0 3.0 0.00 0.00 0.00 51 1016.8
20260905161032 85 37 1.0 4.0 0.00 0.00 0.00 52 1016.7
20260905160032 84 84 0.0 3.0 0.00 0.00 0.00 53 1016.8
20260905155032 84 45 1.0 4.0 0.00 0.00 0.00 54 1016.8
20260905154030 84 68 1.0 3.0 0.00 0.00 0.00 54 1016.8
20260905153049 84 270 1.0 6.0 0.00 0.00 0.00 53 1016.6
20260905152032 84 8 0.0 1.0 0.00 0.00 0.00 52 1016.6
20260905151032 84 0 0.0 0.0 0.00 0.00 0.00 52 1016.6
20260905150032 82 0 0.0 0.0 0.00 0.00 0.00 53 1016.9
20260905145032 81 0 0.0 0.0 0.00 0.00 0.00 54 1016.9
20260905144032 80 13 0.0 3.0 0.00 0.00 0.00 56 1017.0
20260905143032 78 0 0.0 0.0 0.00 0.00 0.00 61 1017.1
20260905142032 76 17 0.0 1.0 0.00 0.00 0.00 65 1017.1
20260905141032 75 54 0.0 3.0 0.00 0.00 0.00 68 1016.8
20260905140032 74 0 0.0 0.0 0.00 0.00 0.00 69 1016.8
20260905135032 74 0 0.0 0.0 0.00 0.00 0.00 70 1016.8
20260905134032 73 0 0.0 0.0 0.00 0.00 0.00 71 1016.7
20260905133032 73 0 0.0 0.0 0.00 0.00 0.00 71 1016.4
20260905132030 73 0 0.0 0.0 0.00 0.00 0.00 71 1016.4
20260905131032 74 0 0.0 0.0 0.00 0.00 0.00 70 1015.9
20260905130032 74 0 0.0 0.0 0.00 0.00 0.00 69 1015.7
20260905125032 74 0 0.0 0.0 0.00 0.00 0.00 69 1015.7
20260905124032 74 0 0.0 0.0 0.00 0.00 0.00 68 1015.6
20260905123032 75 0 0.0 0.0 0.00 0.00 0.00 67 1015.4
20260905122030 75 0 0.0 0.0 0.00 0.00 0.00 66 1015.4
20260905121047 76 0 0.0 0.0 0.00 0.00 0.00 64 1015.0
20260905120049 76 0 0.0 0.0 0.00 0.00 0.00 63 1015.0
20260905115032 75 0 0.0 0.0 0.00 0.00 0.00 64 1015.0
20260905114032 75 0 0.0 0.0 0.00 0.00 0.00 65 1015.2
20260905113032 75 0 0.0 0.0 0.00 0.00 0.00 67 1015.2
20260905112032 75 0 0.0 0.0 0.00 0.00 0.00 67 1015.2
20260905111030 76 0 0.0 0.0 0.00 0.00 0.00 66 1015.0
20260905110030 76 0 0.0 0.0 0.00 0.00 0.00 66 1015.0
20260905105032 76 0 0.0 0.0 0.00 0.00 0.00 65 1015.0
20260905104032 77 0 0.0 0.0 0.00 0.00 0.00 64 1015.0
20260905103049 77 0 0.0 0.0 0.00 0.00 0.00 62 1014.9
20260905102032 78 0 0.0 0.0 0.00 0.00 0.00 61 1014.9
20260905101032 78 0 0.0 0.0 0.00 0.00 0.00 60 1015.0
20260905100030 78 0 0.0 0.0 0.00 0.00 0.00 59 1015.0
20260905095032 78 0 0.0 0.0 0.00 0.00 0.00 59 1015.0
20260905094106 78 0 0.0 0.0 0.00 0.00 0.00 60 1015.1
20260905093032 78 0 0.0 0.0 0.00 0.00 0.00 60 1015.2
20260905092032 78 0 0.0 0.0 0.00 0.00 0.00 60 1015.2
20260905091032 78 0 0.0 0.0 0.00 0.00 0.00 59 1014.9
20260905090032 79 0 0.0 0.0 0.00 0.00 0.00 58 1014.9
20260905085030 79 0 0.0 0.0 0.00 0.00 0.00 59 1014.9
20260905084032 79 0 0.0 0.0 0.00 0.00 0.00 60 1015.1
20260905083032 79 0 0.0 0.0 0.00 0.00 0.00 60 1015.3
20260905082049 79 0 0.0 0.0 0.00 0.00 0.00 60 1015.3
20260905081032 80 0 0.0 0.0 0.00 0.00 0.00 60 1015.3
20260905080032 80 0 0.0 0.0 0.00 0.00 0.00 59 1015.2
20260905075032 80 0 0.0 0.0 0.00 0.00 0.00 58 1015.2
20260905074032 80 0 0.0 0.0 0.00 0.00 0.00 58 1015.3
20260905073032 81 0 0.0 0.0 0.00 0.00 0.00 57 1015.3
20260905072049 81 0 0.0 0.0 0.00 0.00 0.00 56 1015.3
20260905071032 81 0 0.0 0.0 0.00 0.00 0.00 55 1015.2
20260905070032 82 0 0.0 0.0 0.00 0.00 0.00 54 1015.2
20260905065032 82 0 0.0 0.0 0.00 0.00 0.00 53 1015.2
20260905064030 82 0 0.0 0.0 0.00 0.00 0.00 52 1015.3
20260905063030 83 0 0.0 0.0 0.00 0.00 0.00 51 1015.0
20260905062032 83 0 0.0 0.0 0.00 0.00 0.00 50 1015.0
20260905061032 83 0 0.0 0.0 0.00 0.00 0.00 49 1015.0
20260905060106 83 76 0.0 1.0 0.00 0.00 0.00 50 1015.0
20260905055032 83 0 0.0 0.0 0.00 0.00 0.00 51 1015.0
20260905054049 83 0 0.0 0.0 0.00 0.00 0.00 50 1014.9
20260905053030 83 0 0.0 0.0 0.00 0.00 0.00 50 1014.8
20260905052032 83 0 0.0 0.0 0.00 0.00 0.00 49 1014.8
20260905051032 84 0 0.0 0.0 0.00 0.00 0.00 48 1015.0
20260905050032 84 0 0.0 0.0 0.00 0.00 0.00 45 1014.9
20260905045106 85 0 0.0 0.0 0.00 0.00 0.00 45 1014.9
20260905044032 85 0 0.0 0.0 0.00 0.00 0.00 45 1014.7
20260905043032 85 0 0.0 0.0 0.00 0.00 0.00 45 1014.8
20260905042030 86 0 0.0 0.0 0.00 0.00 0.00 44 1014.8
20260905041032 86 0 0.0 0.0 0.00 0.00 0.00 43 1014.8
20260905040049 87 0 0.0 0.0 0.00 0.00 0.00 42 1014.7
20260905035032 87 0 0.0 0.0 0.00 0.00 0.00 42 1014.7
20260905034032 87 271 0.0 3.0 0.00 0.00 0.00 41 1014.6
20260905033032 87 0 0.0 0.0 0.00 0.00 0.00 41 1014.3
20260905032049 88 0 0.0 0.0 0.00 0.00 0.00 39 1014.3
20260905031030 88 0 0.0 0.0 0.00 0.00 0.00 38 1014.1
20260905030032 89 0 0.0 0.0 0.00 0.00 0.00 37 1014.1
20260905025032 89 271 0.0 1.0 0.00 0.00 0.00 37 1014.1
20260905024049 89 0 0.0 0.0 0.00 0.00 0.00 35 1013.8
20260905023032 90 0 0.0 0.0 0.00 0.00 0.00 34 1013.4
20260905022032 90 67 0.0 1.0 0.00 0.00 0.00 33 1013.4
20260905021032 90 67 0.0 1.0 0.00 0.00 0.00 33 1013.6
20260905020030 91 67 0.0 1.0 0.00 0.00 0.00 33 1013.5
20260905015032 92 66 0.0 1.0 0.00 0.00 0.00 32 1013.5
20260905014032 92 69 1.0 3.0 0.00 0.00 0.00 32 1013.5
20260905013032 93 74 0.0 3.0 0.00 0.00 0.00 31 1013.3
20260905012032 93 271 2.0 6.0 0.00 0.00 0.00 30 1013.3
20260905011049 94 270 1.0 6.0 0.00 0.00 0.00 30 1013.3
20260905010030 94 75 4.0 10.0 0.00 0.00 0.00 29 1013.2
20260905005047 95 85 3.0 10.0 0.00 0.00 0.00 29 1013.2
20260905004049 95 280 3.0 9.0 0.00 0.00 0.00 29 1013.1
20260905003032 95 81 3.0 12.0 0.00 0.00 0.00 29 1012.8
20260905002032 95 74 4.0 13.0 0.00 0.00 0.00 29 1012.8